KJ5HMU-13 Weather Reports


Display with metric or nautical units.
time (UTC)temp
F
wind
direction
speed
MPH
gust
MPH
rain 1hr
in
rain 24hr
in
rain mn
in
humidity
%
barometer
mb
20260505173039 40 6 3.0 4.0 0.00 0.03 0.03 87 1017.7
20260505172537 40 15 2.0 4.0 0.00 0.03 0.03 85 1017.4
20260505172033 41 10 6.0 8.0 0.00 0.03 0.03 85 1017.4
20260505171528 41 21 4.0 7.0 0.00 0.03 0.03 86 1017.5
20260505171025 42 16 4.0 4.0 0.00 0.03 0.03 84 1017.5
20260505170522 42 16 3.0 4.0 0.00 0.03 0.03 85 1017.5
20260505170018 41 8 1.0 1.0 0.00 0.03 0.03 86 1017.4
20260505165514 41 358 1.0 1.0 0.00 0.03 0.03 90 1017.5
20260505165009 40 19 1.0 1.0 0.00 0.03 0.03 91 1017.8
20260505164506 40 359 3.0 3.0 0.00 0.03 0.03 91 1017.8
20260505164004 39 25 2.0 3.0 0.00 0.03 0.03 92 1017.8
20260505163502 39 7 4.0 4.0 0.00 0.03 0.03 90 1017.9
20260505163003 40 16 3.0 3.0 0.00 0.03 0.03 91 1017.8
20260505162457 41 11 2.0 3.0 0.00 0.03 0.03 90 1017.8
20260505161954 42 38 0.0 0.0 0.00 0.03 0.03 91 1017.8
20260505161450 42 42 0.0 0.0 0.00 0.03 0.03 92 1017.9
20260505160948 42 27 0.0 0.0 0.00 0.03 0.03 92 1017.8
20260505160446 42 27 0.0 0.0 0.00 0.03 0.03 92 1017.9
20260505152922 41 25 0.0 0.0 0.00 0.03 0.03 95 1018.3
20260505152420 41 25 0.0 0.0 0.00 0.03 0.03 95 1018.2
20260505151919 41 25 0.0 0.0 0.00 0.03 0.03 96 1018.1
20260505151416 40 25 0.0 0.0 0.00 0.03 0.03 96 1018.3
20260505150913 40 22 0.0 0.0 0.00 0.03 0.03 97 1018.2
20260505150410 40 22 0.0 0.0 0.00 0.03 0.03 97 1018.2
20260505140334 37 10 0.0 0.0 0.00 0.03 0.03 98 1018.6
20260505130258 35 10 0.0 0.0 0.00 0.03 0.03 98 1019.0
20260505124748 35 10 0.0 0.0 0.00 0.03 0.03 98 1019.0
20260505124245 35 10 0.0 0.0 0.00 0.03 0.03 98 1019.0
20260505123740 35 10 0.0 0.0 0.00 0.03 0.03 98 1018.9
20260505123237 35 10 0.0 0.0 0.00 0.03 0.03 98 1018.7
20260505122734 35 10 0.0 0.0 0.00 0.03 0.03 98 1019.0
20260505122231 35 10 0.0 0.0 0.07 0.03 0.03 98 1019.0
20260505121728 35 10 0.0 0.0 0.07 0.03 0.03 98 1019.1
20260505121224 35 10 0.0 0.0 0.00 0.02 0.02 98 1019.0
20260505120721 35 10 0.0 0.0 0.00 0.02 0.02 98 1018.9
20260505120217 35 10 0.0 0.0 0.00 0.02 0.02 98 1019.0
20260505115715 35 10 0.0 0.0 0.00 0.02 0.02 98 1019.0
20260505115214 35 10 0.0 0.0 0.00 0.02 0.02 98 1019.0
20260505114711 35 10 0.0 0.0 0.00 0.02 0.02 98 1019.1
20260505114207 35 10 0.0 0.0 0.00 0.02 0.02 98 1019.0
20260505113703 35 10 0.0 0.0 0.00 0.02 0.02 98 1019.1
20260505113200 35 10 0.0 0.0 0.00 0.02 0.02 98 1019.1
20260505112656 35 10 0.0 0.0 0.00 0.02 0.02 98 1019.0
20260505112154 35 10 0.0 0.0 0.00 0.02 0.02 98 1019.0
20260505111654 35 10 0.0 0.0 0.00 0.02 0.02 98 1019.0
20260505111150 35 10 0.0 0.0 0.00 0.02 0.02 98 1019.0
20260505110646 35 10 0.0 0.0 0.00 0.02 0.02 98 1019.4
20260505110144 35 10 0.0 0.0 0.00 0.02 0.02 98 1019.0
20260505102119 35 10 0.0 0.0 0.00 0.02 0.02 98 1019.6
20260505101618 35 10 0.0 0.0 0.00 0.02 0.02 98 1019.6
20260505101113 35 10 0.0 0.0 0.00 0.02 0.02 98 1019.6
20260505100610 35 10 0.0 0.0 0.00 0.02 0.02 98 1019.5
20260505100107 35 10 0.0 0.0 0.00 0.02 0.02 98 1019.5
20260505095603 35 10 0.0 0.0 0.00 0.02 0.02 98 1020.0
20260505095100 35 10 0.0 0.0 0.00 0.02 0.02 98 1019.5
20260505094556 35 10 0.0 0.0 0.00 0.02 0.02 98 1019.9
20260505094052 35 11 0.0 0.0 0.05 0.02 0.02 98 1019.6
20260505093549 35 11 0.0 0.0 0.05 0.02 0.02 98 1020.2
20260505093047 35 11 0.0 0.0 0.00 0.01 0.01 98 1020.0
20260505092544 35 11 0.0 0.0 0.00 0.01 0.01 98 1019.9
20260505092042 35 11 0.0 0.0 0.00 0.01 0.01 98 1019.8
20260505091538 35 11 0.0 0.0 0.00 0.01 0.01 98 1020.0
20260505091037 35 11 0.0 0.0 0.00 0.01 0.01 98 1020.0
20260505090535 35 11 0.0 0.0 0.00 0.01 0.01 98 1019.9
20260505090032 35 11 0.0 0.0 0.00 0.01 0.01 98 1020.2
20260505085530 35 11 0.0 0.0 0.00 0.01 0.01 98 1020.2
20260505085028 35 11 0.0 0.0 0.00 0.01 0.01 98 1020.0
20260505084526 36 11 0.0 0.0 0.00 0.01 0.01 98 1020.7
20260505084024 35 11 0.0 0.0 0.00 0.01 0.01 98 1020.4
20260505083520 35 11 0.0 0.0 0.00 0.01 0.01 98 1020.7
20260505083017 35 11 0.0 0.0 0.00 0.01 0.01 98 1020.7
20260505082513 35 11 0.0 0.0 0.00 0.01 0.01 98 1020.8
20260505082010 35 11 0.0 0.0 0.00 0.01 0.01 97 1020.8
20260505081506 35 11 0.0 0.0 0.00 0.01 0.01 97 1020.7
20260505081003 35 11 0.0 0.0 0.00 0.01 0.01 97 1020.7
20260505080459 35 11 0.0 0.0 0.00 0.01 0.01 97 1020.8
20260505075955 35 11 0.0 0.0 0.00 0.01 0.01 97 1020.8
20260505075452 35 11 0.0 0.0 0.00 0.01 0.01 97 1020.7
20260505074949 35 11 0.0 0.0 0.00 0.01 0.01 97 1020.8
20260505074447 35 11 0.0 0.0 0.00 0.01 0.01 97 1020.8
20260505073944 35 11 0.0 0.0 0.07 0.01 0.01 97 1020.8
20260505073441 35 11 0.0 0.0 0.07 0.01 0.01 97 1020.8
20260505072938 35 11 0.0 0.0 0.00 0.00 0.00 97 1020.8
20260505072434 35 11 0.0 0.0 0.00 0.00 0.00 97 1021.1
20260505071930 35 11 0.0 0.0 0.00 0.00 0.00 97 1021.1
20260505071426 35 11 0.0 0.0 0.00 0.00 0.00 97 1021.1
20260505070925 35 11 0.0 0.0 0.00 0.00 0.00 97 1021.1
20260505070421 35 11 0.0 0.0 0.00 0.00 0.00 97 1021.1
20260505065917 35 11 0.0 0.0 0.00 0.00 0.00 97 1021.2
20260505065413 35 11 0.0 0.0 0.00 0.00 0.00 97 1021.3
20260505064910 35 11 0.0 0.0 0.00 0.00 0.00 97 1021.3
20260505064408 35 11 0.0 0.0 0.00 0.00 0.00 97 1021.3
20260505063906 35 11 0.0 0.0 0.00 0.00 0.00 97 1021.2
20260505063402 36 11 0.0 0.0 0.00 0.00 0.00 97 1021.2
20260505062858 36 11 0.0 0.0 0.00 0.00 0.00 97 1021.2
20260505062356 36 11 0.0 0.0 0.00 0.00 0.00 97 1021.2
20260505061852 36 11 0.0 0.0 0.00 0.00 0.00 97 1021.1
20260505061351 36 11 0.0 0.0 0.00 0.00 0.00 97 1021.1
20260505060848 36 11 0.0 0.0 0.00 0.00 0.00 97 1021.2
20260505060344 36 11 0.0 0.0 0.00 0.00 0.00 97 1021.3
20260505055840 36 11 0.0 0.0 0.00 0.11 0.11 97 1021.2
20260505055336 36 11 0.0 0.0 0.00 0.11 0.11 97 1021.3
20260505054834 36 11 0.0 0.0 0.00 0.11 0.11 97 1021.2
20260505054331 36 11 0.0 0.0 0.00 0.11 0.11 97 1021.5
20260505053829 36 11 0.0 0.0 0.00 0.11 0.11 97 1021.5
20260505053326 36 11 0.0 0.0 0.00 0.11 0.11 96 1021.3
20260505052823 36 11 0.0 0.0 0.00 0.11 0.11 96 1021.6
20260505052320 35 11 0.0 0.0 0.00 0.11 0.11 96 1021.5
20260505051817 35 11 0.0 0.0 0.00 0.11 0.11 96 1021.5
20260505051314 35 11 0.0 0.0 0.00 0.11 0.11 96 1021.5
20260505050812 35 11 0.0 0.0 0.00 0.11 0.11 96 1021.3
20260505050311 35 11 0.0 0.0 0.00 0.11 0.11 96 1021.3
20260505041740 37 11 0.0 0.0 0.00 0.11 0.11 96 1021.6
20260505041237 37 11 0.0 0.0 0.00 0.11 0.11 96 1021.9
20260505040734 37 11 0.0 0.0 0.00 0.11 0.11 96 1021.5
20260505040232 37 11 0.0 0.0 0.00 0.11 0.11 96 1021.6
20260505035729 36 11 0.0 0.0 0.00 0.11 0.11 96 1021.9
20260505035225 36 11 0.0 0.0 0.00 0.11 0.11 96 1021.6
20260505034722 36 11 0.0 0.0 0.00 0.11 0.11 96 1021.7
20260505034219 36 11 0.0 0.0 0.00 0.11 0.11 96 1021.3
20260505033715 36 11 0.0 1.0 0.00 0.11 0.11 96 1021.5
20260505033213 36 11 0.0 0.0 0.00 0.11 0.11 96 1021.5
20260505032711 36 11 0.0 0.0 0.00 0.11 0.11 96 1021.6
20260505032206 36 10 0.0 0.0 0.00 0.11 0.11 96 1021.7
20260505031704 36 10 0.0 0.0 0.00 0.11 0.11 96 1021.6
20260505031200 36 10 0.0 0.0 0.00 0.11 0.11 96 1021.9
20260505030657 36 10 0.0 0.0 0.00 0.11 0.11 96 1021.5
20260505030153 36 10 0.0 0.0 0.00 0.11 0.11 96 1021.6
20260505025649 36 10 0.0 0.0 0.00 0.11 0.11 96 1021.3
20260505025148 36 10 0.0 0.0 0.00 0.11 0.11 96 1021.3
20260505024645 37 10 0.0 0.0 0.00 0.11 0.11 96 1021.2
20260505024142 37 10 0.0 0.0 0.00 0.11 0.11 95 1021.2
20260505023640 37 10 0.0 0.0 0.00 0.11 0.11 95 1021.2
20260505023137 37 10 0.0 0.0 0.00 0.11 0.11 95 1021.2
20260505022634 36 10 0.0 0.0 0.00 0.11 0.11 95 1021.2
20260505022131 36 10 0.0 0.0 0.00 0.11 0.11 95 1020.9
20260505021628 36 10 0.0 0.0 0.00 0.11 0.11 95 1021.1
20260505021124 36 10 0.0 0.0 0.00 0.11 0.11 95 1020.9
20260505020620 36 10 0.0 0.0 0.00 0.11 0.11 95 1020.9
20260505020116 36 9 0.0 0.0 0.00 0.11 0.11 95 1020.9
20260505015614 36 9 0.0 0.0 0.00 0.11 0.11 94 1021.1
20260505015110 35 16 1.0 1.0 0.05 0.11 0.11 94 1020.9
20260505014607 35 19 2.0 2.0 0.05 0.11 0.11 94 1021.2
20260505014104 35 17 3.0 3.0 0.07 0.10 0.10 94 1020.9
20260505013601 35 16 3.0 6.0 0.19 0.10 0.10 93 1020.9
20260505013059 35 17 2.0 2.0 0.31 0.09 0.09 92 1021.2
20260505012556 36 29 5.0 6.0 0.24 0.07 0.07 92 1021.5
20260505012053 36 32 4.0 7.0 0.12 0.04 0.04 92 1021.2
20260505011549 37 21 3.0 3.0 0.12 0.03 0.03 91 1020.9
20260505011046 37 339 5.0 7.0 0.12 0.02 0.02 90 1020.4
20260505010541 38 34 4.0 6.0 0.07 0.01 0.01 88 1020.8
20260505010038 41 11 6.0 8.0 0.00 0.00 0.00 82 1020.3
20260505005534 43 334 3.0 4.0 0.00 0.00 0.00 75 1020.3
20260505005032 44 199 1.0 1.0 0.00 0.00 0.00 73 1020.2
20260505004529 44 200 1.0 1.0 0.00 0.00 0.00 74 1019.6
20260505004026 44 200 0.0 0.0 0.00 0.00 0.00 73 1019.5
20260505003523 44 200 0.0 0.0 0.00 0.00 0.00 73 1019.9
20260505003020 44 200 0.0 0.0 0.00 0.00 0.00 70 1019.9
20260505002515 44 200 0.0 0.0 0.00 0.00 0.00 71 1020.0
20260505002015 45 200 0.0 0.0 0.00 0.00 0.00 72 1020.0
20260505001511 45 200 0.0 0.0 0.00 0.00 0.00 74 1020.2
20260505001008 45 200 0.0 0.0 0.00 0.00 0.00 76 1020.3
20260505000506 45 200 0.0 0.0 0.00 0.00 0.00 75 1020.3
20260505000003 45 200 0.0 0.0 0.00 0.00 0.00 73 1020.6
20260504235500 45 203 0.0 0.0 0.00 0.00 0.00 76 1020.6
20260504234956 45 203 0.0 0.0 0.00 0.00 0.00 77 1020.4
20260504234454 45 203 0.0 0.0 0.00 0.00 0.00 78 1020.2
20260504233950 45 203 0.0 0.0 0.00 0.00 0.00 75 1020.7
20260504233446 45 203 0.0 0.0 0.00 0.00 0.00 76 1020.7
20260504232943 45 204 0.0 0.0 0.00 0.00 0.00 76 1020.4
20260504232440 45 203 0.0 0.0 0.00 0.00 0.00 77 1020.6
20260504231937 46 204 0.0 1.0 0.00 0.00 0.00 72 1020.8
20260504231433 47 208 0.0 0.0 0.00 0.00 0.00 73 1020.8
20260504230929 46 209 0.0 0.0 0.00 0.00 0.00 77 1021.2
20260504230426 45 209 0.0 0.0 0.00 0.00 0.00 75 1020.9
20260504225926 44 209 0.0 0.0 0.00 0.00 0.00 79 1021.1
20260504225422 45 209 0.0 0.0 0.00 0.00 0.00 77 1021.2
20260504224919 46 208 0.0 0.0 0.00 0.00 0.00 70 1021.3
20260504224416 47 199 0.0 0.0 0.00 0.00 0.00 60 1021.3
20260504223913 48 199 0.0 0.0 0.00 0.00 0.00 59 1021.1
20260504223408 48 191 0.0 0.0 0.00 0.00 0.00 57 1020.9
20260504222904 49 192 0.0 0.0 0.00 0.00 0.00 55 1020.8
20260504222402 50 200 0.0 0.0 0.00 0.00 0.00 55 1020.8
20260504221900 51 157 0.0 0.0 0.00 0.00 0.00 54 1021.1
20260504221356 51 156 0.0 0.0 0.00 0.00 0.00 53 1021.2
20260504220854 51 162 1.0 1.0 0.00 0.00 0.00 53 1021.3
20260504220350 49 151 2.0 2.0 0.00 0.00 0.00 58 1021.3
20260504215847 48 155 1.0 1.0 0.00 0.00 0.00 60 1021.3
20260504215343 47 200 1.0 1.0 0.00 0.00 0.00 65 1021.5
20260504214840 45 194 1.0 1.0 0.00 0.00 0.00 67 1021.6
20260504214337 45 198 0.0 0.0 0.00 0.00 0.00 69 1021.7
20260504213834 44 176 2.0 3.0 0.00 0.00 0.00 70 1021.7
20260504213329 44 142 0.0 1.0 0.00 0.00 0.00 68 1021.7
20260504212827 45 147 2.0 2.0 0.00 0.00 0.00 66 1021.5
20260504212323 46 156 1.0 1.0 0.00 0.00 0.00 64 1021.5
20260504211821 47 293 1.0 1.0 0.00 0.00 0.00 61 1021.3
20260504211317 49 146 0.0 0.0 0.00 0.00 0.00 57 1021.1
20260504210815 51 167 1.0 2.0 0.00 0.00 0.00 50 1020.8
20260504210312 54 158 4.0 7.0 0.00 0.00 0.00 42 1020.4
20260504205809 56 24 3.0 4.0 0.00 0.00 0.00 34 1020.2
20260504205306 56 130 0.0 0.0 0.00 0.00 0.00 36 1020.2
20260504204804 56 130 0.0 0.0 0.00 0.00 0.00 37 1020.0
20260504204302 58 131 1.0 1.0 0.00 0.00 0.00 34 1019.9
20260504203801 59 110 0.0 0.0 0.00 0.00 0.00 34 1019.9
20260504203258 58 187 0.0 0.0 0.00 0.00 0.00 36 1020.2
20260504202758 57 109 0.0 1.0 0.00 0.00 0.00 37 1020.3
20260504202256 58 157 0.0 0.0 0.00 0.00 0.00 38 1020.2
20260504201753 59 193 0.0 0.0 0.00 0.00 0.00 37 1020.3
20260504201250 58 145 1.0 1.0 0.00 0.00 0.00 37 1020.7
20260504200748 57 169 1.0 1.0 0.00 0.00 0.00 37 1020.7
20260504200243 54 101 0.0 0.0 0.00 0.00 0.00 41 1020.8
20260504195740 51 137 0.0 0.0 0.00 0.00 0.00 46 1020.8
20260504195236 52 200 0.0 0.0 0.00 0.00 0.00 45 1021.1
20260504194733 53 312 1.0 1.0 0.00 0.00 0.00 44 1020.9
20260504194229 54 333 2.0 3.0 0.00 0.00 0.00 43 1021.2
20260504193726 55 262 2.0 2.0 0.00 0.00 0.00 41 1021.2
20260504193223 54 65 1.0 2.0 0.00 0.00 0.00 44 1021.5
20260504192722 53 137 0.0 0.0 0.00 0.00 0.00 47 1021.3
20260504192219 53 109 0.0 0.0 0.00 0.00 0.00 47 1021.6
20260504191718 55 164 4.0 7.0 0.00 0.00 0.00 43 1021.2
20260504191214 56 167 1.0 4.0 0.00 0.00 0.00 43 1021.6
20260504190710 57 150 1.0 1.0 0.00 0.00 0.00 36 1021.3
20260504190206 57 152 3.0 4.0 0.00 0.00 0.00 35 1021.5
20260504185703 56 198 0.0 0.0 0.00 0.00 0.00 37 1021.3
20260504185159 56 172 1.0 1.0 0.00 0.00 0.00 34 1021.7
20260504184655 57 246 2.0 2.0 0.00 0.00 0.00 36 1021.9
20260504184151 53 163 2.0 3.0 0.00 0.00 0.00 39 1021.6
20260504183648 52 189 1.0 1.0 0.00 0.00 0.00 42 1022.4
20260504183145 52 241 2.0 2.0 0.00 0.00 0.00 43 1022.0
20260504182643 52 37 2.0 3.0 0.00 0.00 0.00 43 1022.1
20260504182140 52 359 0.0 0.0 0.00 0.00 0.00 41 1021.9
20260504181637 52 43 1.0 1.0 0.00 0.00 0.00 43 1022.3
20260504181135 53 331 1.0 1.0 0.00 0.00 0.00 43 1022.4
20260504180634 53 300 1.0 0.0 0.00 0.00 0.00 41 1022.0
20260504180132 53 35 0.0 0.0 0.00 0.00 0.00 42 1022.0
20260504175629 53 8 0.0 0.0 0.00 0.00 0.00 40 1022.4
20260504175125 54 288 2.0 3.0 0.00 0.00 0.00 40 1022.4
20260504174624 55 234 1.0 2.0 0.00 0.00 0.00 39 1022.4
20260504174120 55 113 2.0 2.0 0.00 0.00 0.00 39 1022.3
20260504173617 55 261 2.0 2.0 0.00 0.00 0.00 40 1022.4